Location: Melara
(45.0500°N, 11.1833°E)
Time: 21:47:55
(UTC+00:00)

Okean 1-7 Rocket - Pass Details

Date: 26 May 2022
Orbit: 616 x 648 km, 82.5° (Epoch: 03 July)

Event Time Altitude Azimuth Distance (km) Brightness Sun altitude
Rises 02:48:34 0° 177° (S) 2,901 6.6 -7.6°
Reaches altitude 10° 02:50:49 10° 174° (S) 1,994 5.8 -7.3°
Maximum altitude 02:55:09 59° 95° (E) 722 4.2 -6.7°
Drops below altitude 10° 02:59:29 10° 16° (NNE) 1,995 7.1 -6.1°
Sets 03:01:44 0° 13° (NNE) 2,903 7.9 -5.8°
